User: anonymous   Login
Location: Stoke Bliss
(52.2667°N, 2.5167°W)
Time: 12:22:41
(UTC+00:00)
Language:

Okean-O - Orbit

View from above orbital plane
View from above orbital plane
View from above satellite
View from above satellite

Ground track
Ground track

The orbit data is extracted from the following two-line orbital elements,

1 25860U 99039A   21138.04013252  .00000049  00000-0  14560-4 0  9996
2 25860  98.1851 168.3698 0000940 108.9918 251.1393 14.76732912174980
Epoch (UTC): 18 May 2021 00:57:47
Eccentricity: 0.0000940
inclination: 98.1851°
perigee height: 639 km
apogee height: 640 km
right ascension of ascending node: 168.3698°
argument of perigee: 108.9918°
revolutions per day: 14.76732912
mean anomaly at epoch: 251.1393°
orbit number at epoch: 17498

The dashed part of the orbit path shows where the satellite is in the earth's shadow,  

DLR